| time (UTC) | temp F | wind direction | speed MPH | gust MPH | rain 1hr in | rain 24hr in | rain mn in | humidity % | barometer mb |
| 20260505172917 | 75 | 214 | 6.0 | 10.0 | 0.00 | 0.00 | 0.00 | 41 | 976.1 |
| 20260505172415 | 75 | 106 | 2.0 | 8.0 | 0.00 | 0.00 | 0.00 | 45 | 976.2 |
| 20260505171914 | 76 | 124 | 3.0 | 9.0 | 0.00 | 0.00 | 0.00 | 41 | 976.1 |
| 20260505171411 | 76 | 98 | 7.0 | 10.0 | 0.00 | 0.00 | 0.00 | 43 | 976.3 |
| 20260505170908 | 76 | 68 | 6.0 | 8.0 | 0.00 | 0.00 | 0.00 | 42 | 976.1 |
| 20260505170405 | 75 | 115 | 6.0 | 11.0 | 0.00 | 0.00 | 0.00 | 44 | 976.3 |
| 20260505165900 | 75 | 126 | 7.0 | 10.0 | 0.00 | 0.00 | 0.00 | 44 | 976.4 |
| 20260505165356 | 74 | 163 | 3.0 | 7.0 | 0.00 | 0.00 | 0.00 | 46 | 976.7 |
| 20260505164852 | 75 | 146 | 6.0 | 15.0 | 0.00 | 0.00 | 0.00 | 43 | 976.6 |
| 20260505164348 | 75 | 123 | 7.0 | 9.0 | 0.00 | 0.00 | 0.00 | 44 | 976.7 |
| 20260505163847 | 75 | 235 | 6.0 | 14.0 | 0.00 | 0.00 | 0.00 | 42 | 976.6 |
| 20260505163345 | 75 | 192 | 7.0 | 11.0 | 0.00 | 0.00 | 0.00 | 43 | 976.5 |
| 20260505162843 | 75 | 107 | 2.0 | 2.0 | 0.00 | 0.00 | 0.00 | 44 | 976.6 |
| 20260505162339 | 74 | 73 | 5.0 | 11.0 | 0.00 | 0.00 | 0.00 | 46 | 976.9 |
| 20260505161837 | 75 | 193 | 5.0 | 9.0 | 0.00 | 0.00 | 0.00 | 42 | 977.0 |
| 20260505161333 | 75 | 72 | 5.0 | 8.0 | 0.00 | 0.00 | 0.00 | 45 | 977.1 |
| 20260505160831 | 75 | 109 | 5.0 | 11.0 | 0.00 | 0.00 | 0.00 | 45 | 977.0 |
| 20260505160329 | 74 | 151 | 7.0 | 13.0 | 0.00 | 0.00 | 0.00 | 43 | 977.1 |
| 20260505153308 | 74 | 127 | 3.0 | 4.0 | 0.00 | 0.00 | 0.00 | 47 | 977.0 |
| 20260505152805 | 74 | 105 | 2.0 | 6.0 | 0.00 | 0.00 | 0.00 | 45 | 977.1 |
| 20260505152305 | 74 | 135 | 8.0 | 13.0 | 0.00 | 0.00 | 0.00 | 48 | 977.3 |
| 20260505151801 | 74 | 237 | 5.0 | 8.0 | 0.00 | 0.00 | 0.00 | 46 | 977.1 |
| 20260505151259 | 73 | 30 | 2.0 | 8.0 | 0.00 | 0.00 | 0.00 | 49 | 977.0 |
| 20260505150756 | 73 | 106 | 5.0 | 9.0 | 0.00 | 0.00 | 0.00 | 47 | 977.2 |
| 20260505150253 | 73 | 325 | 2.0 | 6.0 | 0.00 | 0.00 | 0.00 | 45 | 977.2 |
| 20260505140217 | 71 | 113 | 1.0 | 4.0 | 0.00 | 0.00 | 0.00 | 53 | 977.3 |
| 20260505130141 | 70 | 113 | 2.0 | 4.0 | 0.00 | 0.00 | 0.00 | 52 | 977.3 |
| 20260505124630 | 68 | 95 | 2.0 | 8.0 | 0.00 | 0.00 | 0.00 | 55 | 977.3 |
| 20260505124127 | 68 | 117 | 2.0 | 4.0 | 0.00 | 0.00 | 0.00 | 57 | 977.2 |
| 20260505123623 | 68 | 95 | 1.0 | 4.0 | 0.00 | 0.00 | 0.00 | 58 | 977.1 |
| 20260505123120 | 68 | 125 | 1.0 | 3.0 | 0.00 | 0.00 | 0.00 | 55 | 977.2 |
| 20260505122617 | 67 | 96 | 1.0 | 4.0 | 0.00 | 0.00 | 0.00 | 57 | 977.3 |
| 20260505122115 | 66 | 96 | 1.0 | 4.0 | 0.00 | 0.00 | 0.00 | 60 | 977.3 |
| 20260505121611 | 64 | 104 | 2.0 | 3.0 | 0.00 | 0.00 | 0.00 | 64 | 977.5 |
| 20260505121108 | 63 | 200 | 4.0 | 4.0 | 0.00 | 0.00 | 0.00 | 62 | 977.5 |
| 20260505120604 | 64 | 237 | 0.0 | 2.0 | 0.00 | 0.00 | 0.00 | 68 | 977.3 |
| 20260505120100 | 64 | 265 | 1.0 | 2.0 | 0.00 | 0.00 | 0.00 | 70 | 977.3 |
| 20260505115600 | 62 | 323 | 1.0 | 1.0 | 0.00 | 0.00 | 0.00 | 72 | 977.3 |
| 20260505115057 | 62 | 252 | 0.0 | 1.0 | 0.00 | 0.00 | 0.00 | 71 | 977.2 |
| 20260505114555 | 62 | 257 | 0.0 | 0.0 | 0.00 | 0.00 | 0.00 | 73 | 977.3 |
| 20260505114050 | 62 | 256 | 0.0 | 1.0 | 0.00 | 0.00 | 0.00 | 72 | 977.3 |
| 20260505113547 | 61 | 243 | 0.0 | 2.0 | 0.00 | 0.00 | 0.00 | 75 | 977.3 |
| 20260505113044 | 60 | 173 | 0.0 | 1.0 | 0.00 | 0.00 | 0.00 | 78 | 977.5 |
| 20260505112540 | 60 | 173 | 2.0 | 3.0 | 0.00 | 0.00 | 0.00 | 69 | 977.3 |
| 20260505112039 | 56 | 279 | 1.0 | 4.0 | 0.00 | 0.00 | 0.00 | 81 | 977.5 |
| 20260505111538 | 56 | 182 | 0.0 | 1.0 | 0.00 | 0.00 | 0.00 | 88 | 977.1 |
| 20260505111034 | 55 | 182 | 0.0 | 0.0 | 0.00 | 0.00 | 0.00 | 90 | 977.2 |
| 20260505110531 | 55 | 181 | 0.0 | 1.0 | 0.00 | 0.00 | 0.00 | 88 | 977.5 |
| 20260505102003 | 47 | 181 | 0.0 | 0.0 | 0.00 | 0.00 | 0.00 | 99 | 976.9 |
| 20260505101501 | 47 | 182 | 0.0 | 0.0 | 0.00 | 0.00 | 0.00 | 99 | 976.7 |
| 20260505100957 | 46 | 182 | 0.0 | 1.0 | 0.00 | 0.00 | 0.00 | 99 | 976.5 |
| 20260505100455 | 46 | 182 | 0.0 | 0.0 | 0.00 | 0.00 | 0.00 | 99 | 976.6 |
| 20260505095951 | 46 | 181 | 0.0 | 0.0 | 0.00 | 0.00 | 0.00 | 99 | 976.6 |
| 20260505095447 | 45 | 182 | 0.0 | 0.0 | 0.00 | 0.00 | 0.00 | 99 | 976.2 |
| 20260505094943 | 46 | 181 | 0.0 | 0.0 | 0.00 | 0.00 | 0.00 | 99 | 976.3 |
| 20260505094440 | 45 | 182 | 0.0 | 1.0 | 0.00 | 0.00 | 0.00 | 99 | 976.3 |
| 20260505093937 | 45 | 182 | 0.0 | 0.0 | 0.00 | 0.00 | 0.00 | 99 | 976.4 |
| 20260505093433 | 45 | 182 | 0.0 | 0.0 | 0.00 | 0.00 | 0.00 | 99 | 976.5 |
| 20260505092931 | 45 | 182 | 0.0 | 0.0 | 0.00 | 0.00 | 0.00 | 99 | 976.3 |
| 20260505092429 | 45 | 182 | 0.0 | 0.0 | 0.00 | 0.00 | 0.00 | 99 | 976.4 |
| 20260505091926 | 44 | 181 | 0.0 | 0.0 | 0.00 | 0.00 | 0.00 | 99 | 976.1 |
| 20260505091423 | 45 | 182 | 0.0 | 1.0 | 0.00 | 0.00 | 0.00 | 99 | 976.4 |
| 20260505090921 | 45 | 181 | 0.0 | 0.0 | 0.00 | 0.00 | 0.00 | 99 | 976.2 |
| 20260505090419 | 45 | 182 | 0.0 | 0.0 | 0.00 | 0.00 | 0.00 | 99 | 976.1 |
| 20260505085916 | 45 | 182 | 0.0 | 0.0 | 0.00 | 0.00 | 0.00 | 99 | 976.1 |
| 20260505085414 | 45 | 182 | 0.0 | 1.0 | 0.00 | 0.00 | 0.00 | 99 | 976.0 |
| 20260505084912 | 45 | 181 | 0.0 | 1.0 | 0.00 | 0.00 | 0.00 | 99 | 976.1 |
| 20260505084410 | 45 | 182 | 0.0 | 0.0 | 0.00 | 0.00 | 0.00 | 99 | 976.0 |
| 20260505083908 | 45 | 182 | 0.0 | 1.0 | 0.00 | 0.00 | 0.00 | 99 | 976.0 |
| 20260505083405 | 46 | 181 | 1.0 | 1.0 | 0.00 | 0.00 | 0.00 | 99 | 975.9 |
| 20260505082901 | 45 | 198 | 0.0 | 0.0 | 0.00 | 0.00 | 0.00 | 99 | 976.1 |
| 20260505082357 | 45 | 198 | 0.0 | 0.0 | 0.00 | 0.00 | 0.00 | 99 | 975.9 |
| 20260505081854 | 46 | 198 | 0.0 | 0.0 | 0.00 | 0.00 | 0.00 | 99 | 975.8 |
| 20260505081350 | 45 | 198 | 0.0 | 0.0 | 0.00 | 0.00 | 0.00 | 99 | 975.8 |
| 20260505080847 | 45 | 198 | 0.0 | 0.0 | 0.00 | 0.00 | 0.00 | 99 | 975.9 |
| 20260505080343 | 46 | 198 | 0.0 | 0.0 | 0.00 | 0.00 | 0.00 | 99 | 975.9 |
| 20260505075839 | 46 | 198 | 0.0 | 0.0 | 0.00 | 0.00 | 0.00 | 99 | 975.9 |
| 20260505075336 | 46 | 198 | 0.0 | 0.0 | 0.00 | 0.00 | 0.00 | 99 | 975.6 |
| 20260505074833 | 45 | 198 | 0.0 | 0.0 | 0.00 | 0.00 | 0.00 | 99 | 975.7 |
| 20260505074330 | 47 | 198 | 0.0 | 0.0 | 0.00 | 0.00 | 0.00 | 99 | 975.8 |
| 20260505073828 | 46 | 198 | 0.0 | 0.0 | 0.00 | 0.00 | 0.00 | 99 | 975.6 |
| 20260505073326 | 46 | 198 | 0.0 | 0.0 | 0.00 | 0.00 | 0.00 | 99 | 975.5 |
| 20260505072822 | 47 | 198 | 0.0 | 0.0 | 0.00 | 0.00 | 0.00 | 99 | 975.5 |
| 20260505072318 | 47 | 198 | 0.0 | 0.0 | 0.00 | 0.00 | 0.00 | 99 | 975.5 |
| 20260505071814 | 47 | 198 | 0.0 | 0.0 | 0.00 | 0.00 | 0.00 | 99 | 975.5 |
| 20260505071311 | 47 | 198 | 0.0 | 0.0 | 0.00 | 0.00 | 0.00 | 99 | 975.5 |
| 20260505070809 | 47 | 198 | 0.0 | 0.0 | 0.00 | 0.00 | 0.00 | 99 | 975.4 |
| 20260505070305 | 47 | 198 | 0.0 | 0.0 | 0.00 | 0.00 | 0.00 | 99 | 975.3 |
| 20260505065800 | 47 | 198 | 0.0 | 0.0 | 0.00 | 0.00 | 0.00 | 99 | 975.4 |
| 20260505065258 | 48 | 197 | 0.0 | 0.0 | 0.00 | 0.00 | 0.00 | 99 | 975.4 |
| 20260505064755 | 48 | 197 | 0.0 | 0.0 | 0.00 | 0.00 | 0.00 | 99 | 975.7 |
| 20260505064252 | 47 | 197 | 0.0 | 0.0 | 0.00 | 0.00 | 0.00 | 99 | 975.5 |
| 20260505063749 | 48 | 197 | 0.0 | 1.0 | 0.00 | 0.00 | 0.00 | 99 | 975.4 |
| 20260505063246 | 47 | 198 | 1.0 | 1.0 | 0.00 | 0.00 | 0.00 | 99 | 975.7 |
| 20260505062742 | 48 | 235 | 0.0 | 1.0 | 0.00 | 0.00 | 0.00 | 99 | 975.3 |
| 20260505062240 | 48 | 235 | 0.0 | 1.0 | 0.00 | 0.00 | 0.00 | 99 | 975.5 |
| 20260505061737 | 48 | 235 | 0.0 | 0.0 | 0.00 | 0.00 | 0.00 | 99 | 975.5 |
| 20260505061235 | 48 | 235 | 0.0 | 0.0 | 0.00 | 0.00 | 0.00 | 99 | 975.6 |
| 20260505060732 | 48 | 235 | 0.0 | 1.0 | 0.00 | 0.00 | 0.00 | 99 | 975.5 |
| 20260505060229 | 48 | 235 | 0.0 | 1.0 | 0.00 | 0.00 | 0.00 | 99 | 975.4 |
| 20260505055724 | 48 | 235 | 0.0 | 0.0 | 0.00 | 0.00 | 0.00 | 99 | 975.5 |
| 20260505055220 | 48 | 235 | 0.0 | 0.0 | 0.00 | 0.00 | 0.00 | 99 | 975.6 |
| 20260505054718 | 48 | 235 | 0.0 | 0.0 | 0.00 | 0.00 | 0.00 | 99 | 975.4 |
| 20260505054216 | 48 | 235 | 0.0 | 0.0 | 0.00 | 0.00 | 0.00 | 99 | 975.4 |
| 20260505053714 | 48 | 235 | 0.0 | 0.0 | 0.00 | 0.00 | 0.00 | 99 | 975.5 |
| 20260505053210 | 47 | 235 | 0.0 | 0.0 | 0.00 | 0.00 | 0.00 | 99 | 975.5 |
| 20260505052707 | 48 | 235 | 0.0 | 0.0 | 0.00 | 0.00 | 0.00 | 99 | 975.5 |
| 20260505052204 | 47 | 235 | 0.0 | 0.0 | 0.00 | 0.00 | 0.00 | 99 | 975.4 |
| 20260505051701 | 47 | 235 | 0.0 | 0.0 | 0.00 | 0.00 | 0.00 | 99 | 975.5 |
| 20260505051159 | 47 | 235 | 0.0 | 0.0 | 0.00 | 0.00 | 0.00 | 99 | 975.4 |
| 20260505050657 | 47 | 235 | 0.0 | 0.0 | 0.00 | 0.00 | 0.00 | 99 | 975.4 |
| 20260505050155 | 47 | 235 | 0.0 | 0.0 | 0.00 | 0.00 | 0.00 | 99 | 975.4 |
| 20260505041624 | 46 | 235 | 0.0 | 0.0 | 0.00 | 0.00 | 0.00 | 98 | 975.2 |
| 20260505041122 | 46 | 235 | 0.0 | 0.0 | 0.00 | 0.00 | 0.00 | 99 | 975.0 |
| 20260505040619 | 46 | 235 | 0.0 | 0.0 | 0.00 | 0.00 | 0.00 | 98 | 975.0 |
| 20260505040116 | 47 | 235 | 0.0 | 0.0 | 0.00 | 0.00 | 0.00 | 98 | 974.8 |
| 20260505035612 | 47 | 235 | 0.0 | 0.0 | 0.00 | 0.00 | 0.00 | 98 | 974.7 |
| 20260505035109 | 47 | 235 | 0.0 | 0.0 | 0.00 | 0.00 | 0.00 | 98 | 975.1 |
| 20260505034605 | 47 | 235 | 0.0 | 0.0 | 0.00 | 0.00 | 0.00 | 98 | 974.8 |
| 20260505034102 | 47 | 235 | 0.0 | 0.0 | 0.00 | 0.00 | 0.00 | 98 | 975.1 |
| 20260505033559 | 47 | 235 | 0.0 | 0.0 | 0.00 | 0.00 | 0.00 | 97 | 975.1 |
| 20260505033058 | 48 | 235 | 0.0 | 0.0 | 0.00 | 0.00 | 0.00 | 98 | 975.1 |
| 20260505032555 | 47 | 235 | 0.0 | 0.0 | 0.00 | 0.00 | 0.00 | 97 | 975.0 |
| 20260505032051 | 48 | 235 | 0.0 | 0.0 | 0.00 | 0.00 | 0.00 | 97 | 974.9 |
| 20260505031548 | 48 | 235 | 0.0 | 0.0 | 0.00 | 0.00 | 0.00 | 97 | 975.0 |
| 20260505031045 | 48 | 235 | 0.0 | 0.0 | 0.00 | 0.00 | 0.00 | 97 | 975.1 |
| 20260505030542 | 49 | 235 | 0.0 | 0.0 | 0.00 | 0.00 | 0.00 | 97 | 975.1 |
| 20260505030038 | 49 | 235 | 0.0 | 0.0 | 0.00 | 0.00 | 0.00 | 97 | 975.0 |
| 20260505025533 | 49 | 235 | 0.0 | 0.0 | 0.00 | 0.00 | 0.00 | 96 | 975.1 |
| 20260505025033 | 49 | 235 | 0.0 | 0.0 | 0.00 | 0.00 | 0.00 | 96 | 975.1 |
| 20260505024529 | 49 | 235 | 0.0 | 0.0 | 0.00 | 0.00 | 0.00 | 95 | 975.1 |
| 20260505024026 | 49 | 235 | 0.0 | 0.0 | 0.00 | 0.00 | 0.00 | 95 | 975.2 |
| 20260505023523 | 50 | 235 | 0.0 | 0.0 | 0.00 | 0.00 | 0.00 | 95 | 975.1 |
| 20260505023021 | 50 | 235 | 0.0 | 0.0 | 0.00 | 0.00 | 0.00 | 95 | 975.2 |
| 20260505022518 | 50 | 235 | 0.0 | 0.0 | 0.00 | 0.00 | 0.00 | 95 | 975.0 |
| 20260505022015 | 50 | 235 | 0.0 | 0.0 | 0.00 | 0.00 | 0.00 | 94 | 975.0 |
| 20260505021512 | 50 | 235 | 0.0 | 0.0 | 0.00 | 0.00 | 0.00 | 93 | 975.0 |
| 20260505021008 | 51 | 235 | 0.0 | 0.0 | 0.00 | 0.00 | 0.00 | 93 | 974.9 |
| 20260505020503 | 51 | 235 | 0.0 | 0.0 | 0.00 | 0.00 | 0.00 | 93 | 975.0 |
| 20260505020000 | 51 | 235 | 0.0 | 0.0 | 0.00 | 0.00 | 0.00 | 92 | 975.0 |
| 20260505015457 | 52 | 235 | 0.0 | 0.0 | 0.00 | 0.00 | 0.00 | 92 | 975.1 |
| 20260505014954 | 52 | 235 | 0.0 | 1.0 | 0.00 | 0.00 | 0.00 | 91 | 975.0 |
| 20260505014451 | 52 | 235 | 0.0 | 0.0 | 0.00 | 0.00 | 0.00 | 91 | 975.1 |
| 20260505013948 | 52 | 235 | 0.0 | 0.0 | 0.00 | 0.00 | 0.00 | 91 | 975.0 |
| 20260505013445 | 53 | 235 | 0.0 | 0.0 | 0.00 | 0.00 | 0.00 | 89 | 975.1 |
| 20260505012943 | 53 | 235 | 0.0 | 0.0 | 0.00 | 0.00 | 0.00 | 89 | 975.0 |
| 20260505012441 | 54 | 235 | 0.0 | 0.0 | 0.00 | 0.00 | 0.00 | 88 | 974.9 |
| 20260505011937 | 53 | 235 | 0.0 | 0.0 | 0.00 | 0.00 | 0.00 | 88 | 974.9 |
| 20260505011433 | 54 | 235 | 0.0 | 0.0 | 0.00 | 0.00 | 0.00 | 88 | 975.0 |
| 20260505010930 | 55 | 235 | 0.0 | 0.0 | 0.00 | 0.00 | 0.00 | 86 | 974.9 |
| 20260505010426 | 55 | 235 | 0.0 | 0.0 | 0.00 | 0.00 | 0.00 | 86 | 975.0 |
| 20260505005922 | 55 | 235 | 0.0 | 0.0 | 0.00 | 0.00 | 0.00 | 84 | 974.9 |
| 20260505005419 | 56 | 235 | 0.0 | 0.0 | 0.00 | 0.00 | 0.00 | 84 | 974.9 |
| 20260505004917 | 56 | 235 | 0.0 | 0.0 | 0.00 | 0.00 | 0.00 | 83 | 975.1 |
| 20260505004413 | 57 | 235 | 0.0 | 0.0 | 0.00 | 0.00 | 0.00 | 80 | 974.9 |
| 20260505003910 | 58 | 235 | 0.0 | 0.0 | 0.00 | 0.00 | 0.00 | 79 | 975.1 |
| 20260505003407 | 58 | 235 | 0.0 | 0.0 | 0.00 | 0.00 | 0.00 | 79 | 974.9 |
| 20260505002903 | 59 | 235 | 0.0 | 0.0 | 0.00 | 0.00 | 0.00 | 78 | 974.7 |
| 20260505002400 | 59 | 235 | 0.0 | 0.0 | 0.00 | 0.00 | 0.00 | 76 | 974.9 |
| 20260505001858 | 60 | 235 | 0.0 | 1.0 | 0.00 | 0.00 | 0.00 | 75 | 975.0 |
| 20260505001355 | 61 | 235 | 0.0 | 0.0 | 0.00 | 0.00 | 0.00 | 73 | 975.0 |
| 20260505000853 | 62 | 235 | 0.0 | 0.0 | 0.00 | 0.00 | 0.00 | 71 | 974.8 |
| 20260505000351 | 63 | 235 | 0.0 | 0.0 | 0.00 | 0.00 | 0.00 | 68 | 975.1 |
| 20260504235847 | 64 | 235 | 1.0 | 1.0 | 0.00 | 0.00 | 0.00 | 64 | 975.0 |
| 20260504235344 | 64 | 235 | 0.0 | 1.0 | 0.00 | 0.00 | 0.00 | 64 | 975.0 |
| 20260504234840 | 65 | 235 | 0.0 | 2.0 | 0.00 | 0.00 | 0.00 | 59 | 975.1 |
| 20260504234338 | 65 | 235 | 1.0 | 1.0 | 0.00 | 0.00 | 0.00 | 57 | 975.1 |
| 20260504233834 | 66 | 245 | 0.0 | 2.0 | 0.00 | 0.00 | 0.00 | 57 | 975.0 |
| 20260504233330 | 67 | 225 | 2.0 | 2.0 | 0.00 | 0.00 | 0.00 | 57 | 975.0 |
| 20260504232827 | 67 | 248 | 0.0 | 3.0 | 0.00 | 0.00 | 0.00 | 57 | 975.0 |
| 20260504232324 | 68 | 248 | 0.0 | 2.0 | 0.00 | 0.00 | 0.00 | 55 | 975.1 |
| 20260504231821 | 68 | 248 | 2.0 | 3.0 | 0.00 | 0.00 | 0.00 | 51 | 974.9 |
| 20260504231317 | 69 | 152 | 3.0 | 3.0 | 0.00 | 0.00 | 0.00 | 50 | 975.3 |
| 20260504230813 | 69 | 205 | 2.0 | 2.0 | 0.00 | 0.00 | 0.00 | 49 | 975.0 |
| 20260504230311 | 70 | 143 | 1.0 | 3.0 | 0.00 | 0.00 | 0.00 | 48 | 975.2 |
| 20260504225810 | 70 | 141 | 3.0 | 4.0 | 0.00 | 0.00 | 0.00 | 49 | 975.2 |
| 20260504225306 | 71 | 103 | 1.0 | 2.0 | 0.00 | 0.00 | 0.00 | 48 | 975.0 |
| 20260504224803 | 71 | 105 | 1.0 | 2.0 | 0.00 | 0.00 | 0.00 | 48 | 975.2 |
| 20260504224300 | 71 | 62 | 1.0 | 3.0 | 0.00 | 0.00 | 0.00 | 48 | 975.3 |
| 20260504223757 | 71 | 189 | 0.0 | 3.0 | 0.00 | 0.00 | 0.00 | 47 | 975.2 |
| 20260504223252 | 70 | 96 | 0.0 | 2.0 | 0.00 | 0.00 | 0.00 | 50 | 975.2 |
| 20260504222749 | 70 | 102 | 2.0 | 3.0 | 0.00 | 0.00 | 0.00 | 51 | 975.1 |
| 20260504222246 | 71 | 212 | 1.0 | 6.0 | 0.00 | 0.00 | 0.00 | 52 | 975.3 |
| 20260504221744 | 71 | 136 | 5.0 | 6.0 | 0.00 | 0.00 | 0.00 | 49 | 975.1 |
| 20260504221241 | 72 | 184 | 2.0 | 7.0 | 0.00 | 0.00 | 0.00 | 46 | 975.2 |
| 20260504220738 | 73 | 113 | 2.0 | 3.0 | 0.00 | 0.00 | 0.00 | 47 | 975.0 |
| 20260504220235 | 72 | 290 | 0.0 | 2.0 | 0.00 | 0.00 | 0.00 | 48 | 975.0 |
| 20260504215732 | 71 | 290 | 3.0 | 7.0 | 0.00 | 0.00 | 0.00 | 48 | 975.1 |
| 20260504215228 | 71 | 167 | 0.0 | 2.0 | 0.00 | 0.00 | 0.00 | 49 | 975.2 |
| 20260504214724 | 71 | 179 | 0.0 | 1.0 | 0.00 | 0.00 | 0.00 | 48 | 975.3 |
| 20260504214221 | 71 | 244 | 1.0 | 6.0 | 0.00 | 0.00 | 0.00 | 47 | 975.1 |
| 20260504213718 | 71 | 112 | 0.0 | 3.0 | 0.00 | 0.00 | 0.00 | 47 | 974.9 |
| 20260504213214 | 72 | 57 | 4.0 | 4.0 | 0.00 | 0.00 | 0.00 | 46 | 974.8 |
| 20260504212711 | 72 | 98 | 1.0 | 6.0 | 0.00 | 0.00 | 0.00 | 46 | 974.5 |
| 20260504212208 | 72 | 115 | 4.0 | 7.0 | 0.00 | 0.00 | 0.00 | 47 | 975.0 |
| 20260504211705 | 73 | 149 | 6.0 | 11.0 | 0.00 | 0.00 | 0.00 | 45 | 974.7 |
| 20260504211201 | 74 | 153 | 1.0 | 3.0 | 0.00 | 0.00 | 0.00 | 46 | 975.0 |
| 20260504210659 | 74 | 264 | 1.0 | 4.0 | 0.00 | 0.00 | 0.00 | 45 | 974.9 |
| 20260504210155 | 73 | 34 | 2.0 | 3.0 | 0.00 | 0.00 | 0.00 | 45 | 975.0 |
| 20260504205653 | 73 | 118 | 5.0 | 6.0 | 0.00 | 0.00 | 0.00 | 45 | 974.8 |
| 20260504205150 | 71 | 130 | 6.0 | 10.0 | 0.00 | 0.00 | 0.00 | 48 | 975.0 |
| 20260504204648 | 71 | 157 | 1.0 | 7.0 | 0.00 | 0.00 | 0.00 | 50 | 974.9 |
| 20260504204147 | 70 | 182 | 1.0 | 7.0 | 0.00 | 0.00 | 0.00 | 51 | 975.1 |
| 20260504203645 | 70 | 331 | 0.0 | 2.0 | 0.00 | 0.00 | 0.00 | 52 | 974.8 |
| 20260504203143 | 70 | 331 | 0.0 | 1.0 | 0.00 | 0.00 | 0.00 | 55 | 974.8 |
| 20260504202642 | 70 | 331 | 1.0 | 2.0 | 0.00 | 0.00 | 0.00 | 56 | 975.0 |
| 20260504202140 | 70 | 280 | 1.0 | 2.0 | 0.00 | 0.00 | 0.00 | 54 | 975.2 |
| 20260504201636 | 69 | 144 | 0.0 | 0.0 | 0.00 | 0.00 | 0.00 | 54 | 975.0 |
| 20260504201134 | 69 | 144 | 0.0 | 4.0 | 0.00 | 0.00 | 0.00 | 52 | 975.1 |
| 20260504200631 | 70 | 108 | 1.0 | 3.0 | 0.00 | 0.00 | 0.00 | 53 | 975.3 |
| 20260504200128 | 71 | 44 | 2.0 | 8.0 | 0.00 | 0.00 | 0.00 | 47 | 975.3 |
| 20260504195624 | 71 | 163 | 3.0 | 8.0 | 0.00 | 0.00 | 0.00 | 48 | 975.3 |
| 20260504195120 | 71 | 85 | 5.0 | 8.0 | 0.00 | 0.00 | 0.00 | 45 | 975.2 |
| 20260504194617 | 73 | 130 | 3.0 | 6.0 | 0.00 | 0.00 | 0.00 | 45 | 975.2 |
| 20260504194113 | 72 | 97 | 1.0 | 4.0 | 0.00 | 0.00 | 0.00 | 48 | 975.4 |
| 20260504193609 | 73 | 264 | 5.0 | 9.0 | 0.00 | 0.00 | 0.00 | 44 | 975.3 |
| 20260504193108 | 73 | 152 | 2.0 | 3.0 | 0.00 | 0.00 | 0.00 | 44 | 975.3 |
| 20260504192606 | 72 | 146 | 2.0 | 3.0 | 0.00 | 0.00 | 0.00 | 46 | 975.1 |
| 20260504192104 | 72 | 187 | 1.0 | 6.0 | 0.00 | 0.00 | 0.00 | 44 | 975.1 |
| 20260504191602 | 73 | 113 | 5.0 | 10.0 | 0.00 | 0.00 | 0.00 | 48 | 975.1 |
| 20260504191057 | 74 | 293 | 1.0 | 9.0 | 0.00 | 0.00 | 0.00 | 41 | 975.1 |
| 20260504190554 | 74 | 114 | 3.0 | 4.0 | 0.00 | 0.00 | 0.00 | 46 | 975.1 |
| 20260504190050 | 73 | 140 | 2.0 | 6.0 | 0.00 | 0.00 | 0.00 | 48 | 975.2 |
| 20260504185547 | 73 | 94 | 1.0 | 6.0 | 0.00 | 0.00 | 0.00 | 42 | 975.2 |
| 20260504185043 | 72 | 124 | 5.0 | 14.0 | 0.00 | 0.00 | 0.00 | 45 | 975.2 |
| 20260504184539 | 73 | 96 | 2.0 | 10.0 | 0.00 | 0.00 | 0.00 | 43 | 975.5 |
| 20260504184034 | 72 | 161 | 7.0 | 9.0 | 0.00 | 0.00 | 0.00 | 45 | 975.7 |
| 20260504183532 | 72 | 106 | 2.0 | 8.0 | 0.00 | 0.00 | 0.00 | 45 | 975.6 |
| 20260504183030 | 72 | 173 | 5.0 | 8.0 | 0.00 | 0.00 | 0.00 | 44 | 975.6 |
| 20260504182526 | 71 | 122 | 3.0 | 4.0 | 0.00 | 0.00 | 0.00 | 45 | 975.6 |
| 20260504182024 | 71 | 129 | 3.0 | 11.0 | 0.00 | 0.00 | 0.00 | 45 | 975.8 |
| 20260504181521 | 71 | 96 | 2.0 | 15.0 | 0.00 | 0.00 | 0.00 | 48 | 975.8 |
| 20260504181019 | 70 | 121 | 1.0 | 11.0 | 0.00 | 0.00 | 0.00 | 48 | 976.2 |
| 20260504180518 | 71 | 167 | 5.0 | 9.0 | 0.00 | 0.00 | 0.00 | 51 | 976.4 |
| 20260504180016 | 70 | 266 | 3.0 | 9.0 | 0.00 | 0.00 | 0.00 | 46 | 976.2 |
| 20260504175513 | 69 | 114 | 3.0 | 10.0 | 0.00 | 0.00 | 0.00 | 46 | 976.0 |
| 20260504175010 | 69 | 100 | 4.0 | 9.0 | 0.00 | 0.00 | 0.00 | 49 | 976.4 |
| 20260504174508 | 69 | 97 | 5.0 | 10.0 | 0.00 | 0.00 | 0.00 | 48 | 976.5 |
| 20260504174005 | 68 | 165 | 5.0 | 13.0 | 0.00 | 0.00 | 0.00 | 51 | 976.5 |
| 20260504173501 | 69 | 161 | 1.0 | 8.0 | 0.00 | 0.00 | 0.00 | 48 | 976.8 |